Regional Weather Roundup
Issued by NWS Cleveland, OH

Home | Current Version | Previous Version | Graphics & Text | Print | Product List | Glossary On
Versions: 1 2 3 4 5 6 7 8 9 10 11 12 13 14 15 16 17 18 19 20 21 22 23 24 25 26 27 28 29 30 31 32 33 34 35 36 37 38 39 40 41 42 43 44 45 46 47 48 49 50
219
ASUS41 KCLE 210210
RWRCLE
OHIO REGIONAL WEATHER ROUNDUP
NATIONAL WEATHER SERVICE WILMINGTON, OH
900 PM EST MON FEB 20 2017

NOTE: "FAIR" INDICATES FEW OR NO CLOUDS BELOW 12,000 FEET WITH NO
SIGNIFICANT WEATHER AND/OR OBSTRUCTIONS TO VISIBILITY.

OHZ001>008-015>018-024>027-034-035-043-044-210300-
   NORTHWEST OHIO

CITY           SKY/WX    TMP DP  RH WIND       PRES   REMARKS
DEFIANCE       FAIR      40  32  73 E8        30.13F
FINDLAY        FAIR      45  34  65 E10       30.12F
TOLEDO EXPRESS FAIR      37  32  82 E8        30.15F
TOLEDO EXEC    FAIR      37  32  82 E7        30.17F
LIMA           FAIR      51  41  68 SE9       30.11F
$$

OHZ009>014-019>023-028>033-038-089-210300-
   NORTHEAST OHIO

CITY           SKY/WX    TMP DP  RH WIND       PRES   REMARKS
CLE-HOPKINS    MOCLDY    42  32  67 CALM      30.21S
CLE-LAKEFRONT  FAIR      38  34  85 NE3       30.18F
CUY CO. ARPT   MOCLDY    45  34  65 E5        30.20F
LORAIN-ELYRIA  FAIR      38  30  73 SE3       30.18F
ASHTABULA      FAIR      38  30  73 NE5       30.22F
AKRON-CANTON   FAIR      50  31  48 E7        30.18F
WOOSTER        FAIR      43  36  76 CALM      30.18S
MANSFIELD      FAIR      48  36  63 SE7       30.16F
YOUNGSTOWN     MOCLDY    46  30  53 E7        30.21S
$$

OHZ042-051>053-060>062-070>072-077>081-210300-
  SOUTHWEST OHIO

CITY           SKY/WX    TMP DP  RH WIND       PRES   REMARKS
CINC-COVINGTON CLOUDY    57  44  62 SE7       30.10R
CINC-LUNKEN    FAIR      49  44  83 CALM      30.11S
HAMILTON       FAIR      51  43  74 E5        30.11F
DAYTON         CLOUDY    53  44  71 SE10      30.12F
WRIGHT-PAT AFB MOCLDY    53  47  78 CALM      30.12F
DAYTON GENERAL FAIR      56  38  50 SE10      30.11S
WILMINGTON     FAIR      51  40  65 SE6       30.13S
$$

OHZ036-037-039>041-045>050-054>059-063>069-073>076-082>088-210300-
  CENTRAL AND SOUTHEAST OHIO

CITY           SKY/WX    TMP DP  RH WIND       PRES   REMARKS
COLUMBUS       CLOUDY    51  41  68 E8        30.14F
OSU AIRPORT    FAIR      50  41  71 E9        30.13F
BOLTON FIELD   FAIR      50  42  74 E6        30.15S
RICKENBACK AFB FAIR      49  44  83 E7        30.14F
NEWARK         FAIR      42  38  85 CALM      30.15F
MARION         FAIR      46  35  65 SE9       30.14F
LANCASTER      FAIR      49  43  80 SE3       30.14F
ZANESVILLE     FAIR      50  39  66 E3        30.17S
NEW PHILLY     FAIR      45  37  73 CALM      30.19R
$$




USA.gov is the U.S. government's official web portal to all federal, state and local government web resources and services.